Regional Weather Roundup
Issued by NWS

Home | Current Version | Previous Version | Text Only | Print | Product List | Glossary On
Versions: 1 2 3 4 5 6 7 8 9 10 11 12 13 14 15 16 17 18 19 20 21 22 23 24 25 26 27 28
000
ASUS45 KREV 232210
RWRNV
NEVADA REGIONAL WEATHER ROUNDUP
NATIONAL WEATHER SERVICE RENO NV
300 PM PDT THU OCT 23 2014

NOTE: "FAIR" INDICATES FEW OR NO CLOUDS BELOW 12,000 FEET WITH NO
SIGNIFICANT WEATHER AND/OR OBSTRUCTIONS TO VISIBILITY.

NVZ001-003-004-232300-
WESTERN NEVADA

CITY           SKY/WX    TMP DP  RH WIND       PRES   REMARKS
RENO           CLOUDY    71  27  19 VRB7      30.03F
CARSON CITY    FAIR      72  19  14 W12G22    30.04F
MINDEN         FAIR      73  23  15 SW10G22   30.05
PYRAMID LAKE     N/A     64 N/A N/A CALM        N/A
FALLON         PTSUNNY   74  24  15 N5        30.01F
LOVELOCK       PTSUNNY   72  28  19 SW7       30.01F
HAWTHORNE      SUNNY     72  27  18 W7        30.01F
$$

NVZ002-CAZ072-073-232300-
NORTHERN AND CENTRAL SIERRA

CITY           SKY/WX    TMP DP  RH WIND       PRES   REMARKS
S. LAKE TAHOE  PTSUNNY   63  26  24 S13G20    30.13F
TRUCKEE        PTSUNNY   61  28  29 SW13G21   30.13F
SQUAW VLY 8000 NOT AVBL
SUSANVILLE     LGT RAIN  55  39  54 SW8       30.10F
BLUE CANYON    CLOUDY    55  36  48 S7        30.16F
MAMMOTH LAKES  FAIR      72  12  10 S21G29    30.18S
$$

NVZ030-031-036-232300-
NORTHERN NEVADA

CITY           SKY/WX    TMP DP  RH WIND       PRES   REMARKS
ELKO           SUNNY     71  19  14 W14       30.04F
WINNEMUCCA     CLOUDY    61  36  39 N10       30.06R
WENDOVER       SUNNY     61  28  29 S5        30.07F
$$

NVZ035-037-232300-
CENTRAL NEVADA

CITY           SKY/WX    TMP DP  RH WIND       PRES   REMARKS
ELY            PTSUNNY   69  20  15 S15       30.14F
EUREKA           N/A     70  21  15 S18       30.09S
$$

NVZ013-014-232300-
SOUTH CENTRAL NEVADA

CITY           SKY/WX    TMP DP  RH WIND       PRES   REMARKS
TONOPAH        CLOUDY    69  22  16 S8        30.12F
$$

NVZ017-020-022-232300-
SOUTHERN NEVADA

CITY           SKY/WX    TMP DP  RH WIND       PRES   REMARKS
LAS VEGAS      MOSUNNY   85  35  16 E6        29.96F
N. LAS VEGAS   SUNNY     83  33  16 SE7       29.99F
NELLIS AFB     SUNNY     85  40  20 E8        29.98F
HENDERSON      SUNNY     86  37  17 NE8       30.02F
MERCURY        SUNNY     84  25  11 SW16      30.03F
$$



USA.gov is the U.S. government's official web portal to all federal, state and local government web resources and services.